Temperature
26 27 27 27 27 26 26 26 25 24 22 22 22 22 22 20 19 19 19 19 18 18 17 16 15 14 14 14 13 13 12 12 12 12 12 12 12 12 12 12 13 13 13 14
26 26 26 26 25 25 25 25 24 22 21 22 22 22 22 21 20 19 19 19 18 17 17 16 15 15 14 14 13 13 12 12 12 12 12 12 12 12 12 12 12 13 13 13
27 25 25 25 25 25 25 24 24 23 21 21 22 23 22 21 20 19 18 18 18 17 17 16 15 15 14 14 13 13 12 12 12 12 11 11 12 12 12 12 12 12 13 13
25 24 25 25 25 25 24 23 22 22 22 23 22 23 23 22 21 20 19 18 18 17 16 16 15 15 14 14 13 13 12 12 11 11 11 11 11 12 11 12 12 12 12 13
24 24 25 25 24 24 23 22 22 22 23 23 22 23 24 22 22 21 20 19 18 17 16 16 15 14 14 13 13 12 12 12 11 11 11 11 11 11 11 11 12 12 12 12
23 23 24 24 22 22 22 22 22 22 23 23 23 22 23 23 22 21 20 19 18 17 16 15 15 14 14 13 13 12 12 11 11 11 11 11 11 11 11 11 11 12 12 12
23 23 23 23 23 22 23 23 23 23 23 23 22 22 23 23 22 21 20 19 18 17 16 16 15 15 14 13 13 12 12 12 11 11 11 11 11 11 11 11 11 11 12 12
24 23 23 23 23 23 23 23 23 23 23 23 22 22 24 22 20 19 19 18 17 17 16 16 15 15 14 14 13 13 12 12 11 11 11 11 11 11 11 11 11 11 11 11
25 23 22 22 22 23 23 23 23 23 23 23 24 23 23 21 20 19 19 18 18 17 16 16 15 15 14 14 13 13 12 12 11 11 11 11 11 11 11 11 11 11 11 11
26 23 22 21 22 21 23 23 22 23 22 23 23 23 23 23 22 21 20 19 18 17 17 16 16 15 15 14 14 13 13 12 12 11 11 11 11 10 10 10 10 10 10 10
25 24 22 22 22 23 21 21 22 22 22 22 23 23 23 23 22 21 21 19 18 18 17 16 16 15 15 14 14 13 13 12 12 11 11 11 11 10 10 10 10 10 10 10
24 25 24 23 21 21 22 22 22 22 22 21 22 23 23 22 21 20 20 19 18 17 17 16 16 15 15 14 14 14 13 13 12 12 11 11 10 10 10 10 10 10 10 10
23 24 23 22 21 21 21 21 21 21 22 22 22 24 22 22 21 20 19 19 18 17 17 16 16 15 15 15 14 14 13 13 12 12 11 11 11 10 10 10 10 10 10 10
22 24 24 24 24 23 21 20 20 21 22 22 22 23 23 23 22 21 20 19 18 18 17 17 16 16 15 15 14 14 13 13 12 12 11 11 11 10 10 10 10 10 10 10
23 24 24 23 22 22 22 21 20 21 22 22 23 22 23 23 22 21 20 19 18 18 17 17 16 16 16 15 15 14 14 13 13 12 12 11 11 10 10 10 10 10 10 10
23 23 23 22 22 22 22 22 21 21 21 21 22 22 23 22 21 20 20 19 18 18 18 17 17 16 16 16 15 14 14 13 13 12 12 11 11 10 10 10 10 10 10 10
23 23 23 23 22 22 23 24 22 22 22 22 22 23 23 22 21 21 20 19 19 18 18 17 17 17 16 16 15 15 14 14 13 12 12 11 11 11 10 10 10 10 10 10
23 23 23 23 23 22 25 23 23 22 23 23 22 23 22 21 20 19 19 19 19 18 18 17 17 17 16 16 15 15 14 14 13 13 12 12 11 11 11 10 10 10 10 10
22 23 23 23 23 23 23 22 22 22 23 23 23 23 22 20 20 22 20 19 19 18 18 17 17 17 16 16 15 15 15 14 14 13 13 12 12 11 11 10 10 10 10 10
20 22 23 22 22 23 24 23 22 23 23 23 23 23 22 21 24 23 20 19 19 18 18 17 17 17 16 16 16 15 15 15 14 13 13 12 12 12 11 11 11 11 10 10
21 21 22 22 23 24 24 21 22 23 24 23 22 22 21 22 23 21 19 19 19 19 18 18 17 17 16 16 16 15 15 15 14 14 14 13 13 12 12 11 11 11 11 10
23 22 22 22 22 23 21 21 23 24 22 21 21 21 20 20 19 19 19 19 19 19 18 18 17 17 17 16 16 16 16 15 15 15 14 14 13 13 12 12 12 11 11 11
23 24 24 24 24 20 18 20 18 18 20 20 20 19 19 19 19 18 18 19 19 19 18 18 18 17 17 17 17 16 16 15 15 15 15 14 14 13 13 13 12 12 11 11
23 20 22 22 22 19 17 16 16 16 17 18 18 18 18 18 18 18 18 18 18 18 18 18 18 17 17 17 17 17 16 16 15 15 15 15 14 14 13 13 13 12 12 11
23 20 22 23 21 18 16 15 15 15 16 17 17 17 17 18 18 17 17 18 18 18 18 18 18 18 17 17 17 16 16 16 16 15 15 15 14 14 14 14 14 13 13 12
22 21 22 24 22 21 19 15 14 15 15 16 16 16 17 17 17 17 17 17 17 17 17 17 17 17 17 16 16 16 16 16 16 15 15 15 15 15 14 14 14 14 14 13
Wind_Speed
7 8 8 8 4 2 2 4 4 1 2 5 8 8 6 8 9 8 7 6 5 4 4 5 6 7 8 8 9 9 10 10 9 8 8 7 7 6 6 6 7 8 8 8
9 7 4 5 5 3 3 4 3 3 2 4 6 9 7 9 10 9 8 7 5 5 5 5 6 7 7 8 8 9 9 9 9 7 7 7 7 6 6 6 7 7 7 7
9 7 7 7 7 4 2 3 2 2 3 4 6 6 7 7 9 9 9 8 6 5 6 6 7 7 7 7 8 8 9 9 8 8 7 7 6 6 5 7 7 8 8 7
7 6 7 7 4 2 2 1 2 3 4 2 3 3 3 4 7 9 10 9 7 5 5 5 6 7 7 7 7 8 8 8 8 8 7 8 7 7 8 7 7 8 8 8
7 7 6 5 4 1 4 4 3 3 4 4 4 5 1 3 4 5 7 8 6 5 4 4 5 6 7 7 6 7 7 7 8 7 7 7 7 7 7 8 9 8 7 7
8 5 3 4 5 4 7 5 4 4 5 4 2 4 2 1 2 1 2 5 5 5 4 4 4 5 6 5 5 5 6 6 7 7 7 7 8 8 9 9 9 8 7 6
7 6 4 4 6 5 5 5 4 5 4 1 2 5 4 1 2 3 2 3 4 4 4 4 5 5 5 5 5 5 5 6 6 7 7 7 8 8 8 9 8 8 7 7
8 6 4 3 2 3 4 5 4 3 2 1 3 4 1 1 2 4 4 4 4 5 4 4 5 5 5 5 5 5 5 6 6 7 7 7 7 7 7 8 8 8 7 8
5 5 5 3 1 2 3 3 3 4 3 4 3 3 3 3 4 5 6 6 7 6 5 5 5 5 5 5 5 5 5 5 6 6 7 7 7 7 8 8 8 7 7 8
3 6 6 5 4 3 2 2 3 4 3 2 2 3 1 1 2 4 6 7 7 6 6 5 5 5 5 5 5 5 5 5 5 6 6 6 7 7 7 8 8 9 9 9
3 5 7 6 6 4 5 4 3 3 3 4 2 1 2 1 2 4 4 5 6 7 6 6 5 5 5 5 5 5 4 4 5 5 6 6 6 7 7 7 8 8 8 9
2 4 5 5 2 1 4 4 5 4 2 3 4 1 4 3 4 6 6 5 6 6 6 6 6 5 5 5 5 5 5 4 4 5 5 5 6 6 7 7 8 8 8 8
5 5 5 5 5 6 5 4 5 4 3 4 3 0 4 3 6 6 7 6 6 7 7 7 6 6 6 5 5 5 5 5 4 4 5 5 6 6 7 8 8 8 8 9
3 5 6 3 2 6 6 8 8 7 4 4 6 7 5 6 7 6 5 7 7 8 8 7 6 6 5 5 5 5 5 4 4 4 5 5 6 6 7 7 8 8 8 8
4 6 5 2 2 4 6 8 11 12 8 6 6 9 11 9 7 6 4 5 7 9 9 8 7 6 6 5 5 5 5 4 5 5 5 5 5 6 6 7 7 8 8 8
5 5 6 6 4 6 7 9 11 11 9 10 11 10 6 4 5 5 5 6 8 9 9 8 8 7 6 6 5 4 4 4 4 5 5 4 5 5 6 7 7 8 8 8
7 7 6 6 4 5 9 11 13 8 9 7 6 4 4 6 6 6 5 6 7 8 8 8 8 7 6 5 4 4 4 3 4 5 4 4 4 5 6 6 7 7 7 8
7 7 5 4 5 6 2 4 7 8 7 9 9 8 7 8 7 7 7 7 7 7 8 8 7 7 6 5 5 4 4 4 4 4 4 4 4 5 5 6 7 8 8 8
3 6 5 4 5 5 3 5 6 6 4 5 6 5 4 4 5 2 0 4 6 6 6 6 6 6 6 5 5 5 5 5 5 5 5 5 5 5 6 6 7 7 7 8
3 5 6 5 5 5 5 7 6 5 5 4 4 2 2 3 2 3 4 3 3 4 5 6 6 6 6 6 5 6 6 6 6 6 6 5 5 6 6 7 7 7 7 7
8 7 9 8 6 4 4 7 7 6 4 4 3 2 2 2 4 4 4 4 3 3 4 6 6 7 7 6 7 8 8 7 6 5 6 6 6 7 7 7 7 7 7 7
10 8 8 7 7 5 7 9 7 2 4 2 2 1 2 4 4 4 4 3 2 2 3 5 6 7 7 7 8 9 9 8 7 6 7 8 8 7 7 7 8 8 7 8
9 7 5 7 3 4 4 4 1 1 2 2 2 2 3 3 3 3 3 3 2 2 3 4 6 7 7 7 8 10 10 8 7 8 9 9 9 8 8 8 8 8 7 7
8 4 5 6 6 5 4 3 2 3 5 4 3 2 2 1 2 3 3 3 3 3 3 3 5 6 7 7 8 10 10 8 9 10 10 10 10 10 9 7 7 7 7 7
6 9 7 7 5 6 6 5 3 3 3 3 3 3 2 2 3 4 4 5 5 5 4 3 4 5 7 7 7 8 8 9 11 12 11 11 10 10 9 9 8 9 8 7
9 9 9 8 10 9 8 8 6 6 5 5 6 6 6 5 5 6 6 7 6 7 6 5 5 6 6 6 7 7 7 8 10 11 11 10 9 8 9 9 9 11 12 9
Wind_Direction
169 190 193 188 204 287 257 257 265 156 163 232 250 258 227 208 218 229 235 248 275 311 330 343 341 342 340 344 346 348 346 348 347 346 342 339 338 334 334 329 328 318 308 300
172 178 130 123 139 162 193 241 238 159 168 252 269 266 244 221 228 238 249 256 272 298 314 335 337 343 341 344 346 346 350 349 349 347 336 330 329 326 332 332 331 329 319 309
184 130 137 148 154 165 175 266 250 206 181 219 281 262 220 217 227 235 243 253 269 285 308 328 337 339 340 343 345 346 347 346 349 344 340 337 336 329 343 343 340 335 327 317
105 124 150 151 137 211 167 109 169 189 234 239 276 293 180 203 229 236 238 241 252 264 286 311 325 334 338 341 341 341 346 346 347 342 345 345 342 342 339 335 334 331 330 327
118 138 153 143 107 125 105 127 166 221 256 266 226 271 195 176 252 243 234 235 242 251 272 296 316 326 329 333 333 336 340 347 350 347 345 338 343 341 335 336 338 336 335 334
108 104 77 106 97 109 137 150 159 210 244 252 220 265 277 194 298 298 213 219 225 236 254 278 300 312 321 323 325 330 335 344 348 345 343 344 344 340 340 342 342 339 337 337
128 117 107 138 142 149 202 231 231 216 218 221 130 259 274 26 286 257 237 215 217 230 253 273 291 307 319 322 321 324 330 335 342 343 345 345 343 338 341 341 341 339 339 340
170 156 141 166 232 204 212 255 279 291 291 244 199 250 300 91 266 236 230 229 227 235 249 268 283 295 302 309 311 318 324 328 335 337 343 344 343 338 340 340 336 336 335 334
188 139 119 102 110 216 194 219 325 287 284 270 223 251 263 183 229 225 227 230 234 238 244 261 277 286 293 299 301 305 313 322 331 335 338 340 343 341 340 337 336 338 337 334
165 146 152 144 152 62 340 156 210 248 277 269 247 247 267 213 265 237 235 236 236 236 243 257 271 279 289 295 291 290 297 311 323 329 334 337 336 339 338 335 342 340 338 339
192 174 159 183 215 198 172 193 228 248 274 290 302 113 98 306 309 291 267 242 234 233 240 254 268 278 285 286 280 277 283 298 315 324 332 331 337 336 335 339 340 337 338 338
169 219 184 172 125 321 238 232 223 253 237 258 283 281 128 247 279 279 274 250 232 232 238 248 262 272 276 284 284 280 281 290 301 314 322 328 331 333 336 341 341 339 340 339
166 204 187 174 183 193 211 209 220 246 254 241 259 16 132 262 280 271 260 251 232 227 233 243 251 264 273 280 280 278 276 281 288 298 311 319 330 339 338 338 339 336 336 336
211 219 239 256 122 167 191 193 202 214 238 249 250 288 307 310 308 294 258 242 232 227 230 238 248 257 265 273 276 278 277 276 277 285 298 312 326 334 333 336 334 334 336 335
222 225 214 202 141 189 209 199 201 218 243 265 287 293 302 315 315 303 272 241 229 228 230 235 244 254 261 266 270 273 275 274 272 280 291 308 319 327 329 331 331 333 334 332
212 213 196 197 201 222 235 224 214 227 244 256 275 287 292 306 293 283 263 239 232 230 230 233 240 247 256 263 270 274 271 271 270 280 291 304 309 320 324 329 333 333 332 333
192 203 209 209 183 223 244 223 207 212 218 234 256 292 323 302 299 294 281 251 242 237 232 232 236 240 249 260 269 273 275 274 269 278 284 290 303 315 322 327 332 331 330 334
196 201 216 219 199 230 120 111 187 211 229 229 254 282 297 298 298 284 271 262 252 239 231 228 230 231 238 244 247 256 257 262 269 275 276 279 289 303 312 318 323 326 331 333
228 203 215 223 225 239 192 180 182 198 198 207 237 270 298 305 276 223 277 261 259 246 231 226 227 228 234 239 244 247 252 257 263 268 272 271 275 290 301 309 315 322 324 326
187 222 227 221 233 227 159 145 169 202 188 165 213 269 298 280 299 47 27 326 276 245 228 223 220 227 234 235 236 247 257 261 263 264 266 267 270 278 287 298 306 312 312 315
189 205 221 226 236 240 134 144 168 203 155 137 192 247 253 274 343 355 341 323 290 251 230 223 224 230 237 235 233 246 257 263 266 261 260 260 261 266 277 287 292 296 303 308
196 196 204 207 220 214 142 167 195 100 100 152 199 242 273 293 313 317 319 328 308 260 231 227 232 237 239 235 237 249 257 264 261 252 253 256 259 263 269 272 282 290 295 298
212 213 207 210 213 91 166 200 10 305 242 235 251 269 283 287 315 333 332 334 324 297 260 241 244 251 249 239 239 253 261 262 255 251 253 257 260 260 262 268 274 281 283 288
199 198 210 220 221 194 185 204 233 247 246 260 260 260 256 271 355 10 12 6 359 344 320 283 262 261 263 259 248 254 265 264 258 258 260 260 261 262 262 260 266 272 278 282
191 183 206 222 186 176 199 199 191 175 169 156 132 107 88 87 59 42 36 26 16 9 357 335 304 294 294 292 279 274 273 267 263 263 263 262 261 263 266 261 256 262 265 267
193 195 203 223 196 190 182 167 167 160 146 134 126 105 81 72 66 57 50 37 28 22 16 9 357 338 327 323 316 312 300 281 271 270 270 267 264 259 259 263 261 233 239 243
Height
1527 1526 1527 1528 1530 1532 1533 1537 1540 1545 1549 1550 1548 1547 1550 1555 1557 1557 1558 1558 1558 1559 1559 1558 1556 1554 1552 1549 1547 1544 1541 1538 1534 1531 1528 1525 1523 1521 1519 1516 1514 1513 1512 1511
1525 1527 1530 1531 1534 1534 1536 1539 1542 1548 1550 1549 1547 1545 1546 1551 1553 1555 1555 1556 1556 1557 1557 1556 1555 1553 1551 1548 1546 1543 1540 1537 1533 1530 1527 1524 1522 1519 1517 1515 1512 1511 1509 1508
1520 1530 1533 1533 1535 1536 1539 1540 1542 1546 1550 1549 1548 1543 1543 1546 1550 1553 1554 1555 1555 1556 1555 1554 1553 1552 1550 1547 1545 1542 1539 1536 1533 1529 1527 1524 1521 1519 1517 1514 1511 1509 1507 1505
1528 1533 1533 1533 1536 1536 1542 1544 1545 1548 1547 1545 1549 1546 1538 1541 1546 1548 1550 1551 1552 1553 1554 1553 1552 1550 1549 1546 1544 1541 1538 1535 1532 1529 1526 1524 1521 1518 1515 1512 1510 1507 1505 1503
1532 1534 1534 1536 1540 1539 1543 1545 1545 1546 1545 1545 1545 1546 1536 1541 1541 1542 1545 1548 1550 1551 1552 1551 1550 1549 1547 1545 1542 1540 1537 1534 1531 1528 1525 1523 1520 1518 1515 1512 1509 1506 1503 1501
1533 1537 1537 1538 1543 1543 1545 1546 1547 1546 1544 1548 1543 1546 1540 1535 1537 1540 1543 1546 1548 1549 1550 1549 1549 1548 1546 1544 1541 1539 1536 1533 1530 1527 1525 1523 1520 1517 1514 1511 1508 1505 1502 1500
1535 1537 1540 1541 1542 1545 1543 1544 1546 1547 1547 1543 1544 1547 1539 1534 1538 1540 1542 1544 1546 1547 1548 1548 1547 1546 1544 1542 1540 1538 1535 1533 1530 1527 1525 1522 1519 1516 1513 1510 1507 1504 1501 1499
1533 1540 1539 1540 1539 1540 1541 1541 1547 1549 1546 1541 1545 1543 1533 1536 1539 1541 1542 1543 1545 1545 1546 1546 1545 1544 1543 1541 1539 1537 1534 1532 1529 1527 1524 1521 1518 1516 1513 1509 1506 1504 1501 1497
1525 1537 1542 1542 1543 1540 1541 1540 1541 1542 1544 1545 1536 1535 1531 1535 1537 1539 1540 1542 1542 1543 1544 1544 1543 1542 1541 1539 1538 1535 1533 1531 1529 1526 1523 1521 1518 1515 1512 1509 1506 1503 1500 1496
1519 1535 1540 1543 1544 1545 1541 1541 1543 1544 1547 1542 1539 1536 1533 1531 1532 1534 1537 1538 1539 1541 1541 1542 1541 1541 1539 1538 1536 1534 1532 1530 1528 1525 1522 1519 1517 1514 1510 1508 1505 1502 1499 1495
1521 1528 1541 1542 1541 1539 1545 1545 1543 1542 1544 1545 1544 1537 1527 1529 1531 1532 1533 1535 1537 1538 1539 1539 1539 1539 1537 1536 1534 1533 1531 1529 1527 1524 1522 1519 1516 1513 1510 1507 1504 1501 1498 1495
1525 1523 1532 1537 1540 1541 1540 1539 1541 1543 1543 1545 1545 1537 1528 1530 1531 1532 1532 1533 1534 1535 1536 1537 1537 1536 1535 1534 1533 1531 1529 1528 1525 1523 1520 1518 1515 1512 1509 1506 1503 1500 1497 1494
1526 1526 1534 1540 1544 1543 1541 1542 1542 1541 1540 1541 1542 1533 1528 1529 1529 1530 1530 1530 1532 1533 1534 1534 1534 1534 1533 1532 1531 1529 1528 1526 1524 1521 1519 1517 1514 1511 1508 1505 1502 1499 1496 1493
1526 1523 1528 1532 1529 1531 1537 1541 1542 1541 1538 1536 1536 1529 1524 1524 1525 1526 1527 1528 1529 1530 1531 1531 1532 1531 1531 1530 1529 1527 1526 1524 1522 1520 1517 1515 1513 1510 1507 1504 1501 1498 1495 1493
1525 1522 1524 1527 1529 1530 1531 1534 1539 1538 1533 1533 1527 1528 1524 1522 1524 1524 1524 1525 1526 1527 1528 1528 1529 1529 1528 1528 1527 1525 1524 1522 1520 1518 1516 1514 1512 1509 1506 1503 1500 1497 1494 1491
1523 1523 1525 1528 1529 1530 1530 1529 1532 1534 1532 1531 1529 1527 1520 1522 1523 1522 1522 1522 1523 1523 1524 1525 1526 1526 1526 1526 1525 1524 1522 1520 1518 1517 1515 1512 1510 1507 1505 1502 1499 1496 1493 1490
1521 1521 1525 1524 1528 1530 1528 1519 1525 1526 1525 1526 1525 1521 1519 1520 1520 1520 1519 1519 1520 1520 1521 1522 1523 1523 1523 1523 1523 1521 1520 1518 1517 1515 1513 1511 1509 1506 1504 1501 1498 1495 1492 1489
1520 1520 1521 1523 1528 1534 1515 1514 1517 1520 1520 1520 1520 1519 1519 1519 1518 1518 1517 1517 1517 1517 1518 1519 1520 1521 1521 1521 1520 1519 1518 1517 1515 1513 1511 1509 1507 1505 1503 1500 1497 1494 1492 1488
1521 1521 1522 1522 1524 1519 1515 1515 1517 1518 1516 1515 1517 1517 1517 1517 1516 1515 1515 1514 1514 1515 1515 1516 1517 1518 1519 1519 1518 1518 1517 1515 1514 1512 1510 1508 1506 1504 1501 1499 1497 1494 1490 1487
1524 1521 1520 1523 1524 1521 1510 1511 1514 1516 1516 1514 1515 1515 1516 1516 1511 1512 1514 1513 1512 1512 1513 1514 1514 1515 1516 1516 1516 1515 1515 1514 1512 1510 1508 1507 1504 1502 1500 1498 1495 1492 1489 1486
1520 1520 1520 1520 1519 1509 1506 1511 1515 1518 1513 1513 1514 1514 1514 1513 1512 1514 1512 1511 1511 1510 1511 1511 1512 1513 1513 1514 1513 1513 1512 1512 1510 1508 1506 1504 1502 1500 1498 1496 1493 1491 1488 1485
1508 1512 1514 1514 1517 1511 1508 1510 1509 1508 1509 1511 1512 1513 1513 1513 1512 1511 1511 1510 1509 1509 1509 1509 1510 1510 1510 1510 1510 1510 1509 1509 1507 1505 1504 1502 1500 1498 1496 1494 1491 1489 1487 1484
1502 1501 1501 1502 1503 1504 1506 1506 1507 1508 1509 1510 1511 1511 1511 1511 1511 1510 1509 1508 1508 1507 1507 1507 1507 1508 1508 1507 1507 1507 1506 1505 1504 1502 1501 1499 1498 1496 1494 1491 1489 1487 1485 1483
1498 1503 1501 1500 1500 1503 1505 1505 1505 1506 1507 1508 1508 1509 1509 1509 1509 1508 1507 1507 1506 1506 1505 1505 1505 1505 1505 1505 1504 1503 1503 1501 1500 1499 1498 1496 1495 1493 1491 1489 1487 1485 1483 1481
1492 1498 1497 1495 1498 1502 1502 1503 1503 1503 1504 1505 1506 1506 1507 1507 1507 1507 1506 1505 1504 1504 1503 1502 1502 1502 1501 1501 1500 1499 1498 1497 1496 1495 1494 1493 1491 1490 1488 1486 1484 1482 1480 1478
1490 1490 1490 1488 1489 1493 1496 1498 1500 1502 1503 1504 1505 1505 1505 1505 1505 1505 1504 1503 1503 1502 1501 1500 1499 1499 1498 1497 1496 1495 1493 1492 1491 1490 1490 1488 1487 1485 1483 1482 1480 1478 1476 1474